Regional Weather Roundup
Issued by NWS

Home | Current Version | Previous Version | Graphics & Text | Print | Product List | Glossary On
Versions: 1 2 3 4 5 6 7 8 9 10 11 12 13 14 15 16 17 18 19 20 21 22 23 24 25 26 27 28 29 30 31 32 33 34 35 36 37 38 39 40 41 42 43 44 45 46 47 48 49 50
000
ASUS43 KLSX 252257
RWRMO

WEATHER SUMMARY FOR MISSOURI
NATIONAL WEATHER SERVICE SPRINGFIELD MO
600 PM CDT SUN SEP 25 2016

NOTE: "FAIR" INDICATES FEW OR NO CLOUDS BELOW 12,000 FEET WITH NO
       SIGNIFICANT WEATHER AND/OR OBSTRUCTIONS TO VISIBILITY.
       CURRENT SKY AND/OR WEATHER CONDITIONS ARE NOT AVAILABLE FOR
       CHILLICOTHE AND FARMINGTON.

MOZ001>031-035>038-043-044-053-054-260000-
...NORTHERN AND WESTERN MISSOURI...

CITY           SKY/WX    TMP DP  RH WIND       PRES   REMARKS
KANSAS CTY INT CLOUDY    65  54  67 NW5       30.14R
LEE`S SUMMIT   CLOUDY    63  56  78 NW6       30.14R
ST JOSEPH      CLOUDY    66  54  65 W5        30.12S
CHILLICOTHE      N/A     66  57  72 VRB3      30.12R

$$
MOZ066>068-077>081-088>096-101>105-260000-
...SOUTHWEST MISSOURI...

CITY           SKY/WX    TMP DP  RH WIND       PRES   REMARKS
SPRINGFIELD    PTSUNNY   71  65  81 NW6       30.07R
JOPLIN         CLOUDY    66  62  87 N7        30.11S

$$
MOZ032>034-039>042-045>050-055>058-069>072-260000-
...CENTRAL MISSOURI...

CITY           SKY/WX    TMP DP  RH WIND       PRES   REMARKS
COLUMBIA       NOT AVBL
JEFFERSON CITY MOSUNNY   78  66  66 NW8       30.03R
SEDALIA        CLOUDY    68  58  70 NW9       30.11R

$$
MOZ051-052-059>065-260000-
...EAST CENTRAL MISSOURI...

CITY           SKY/WX    TMP DP  RH WIND       PRES   REMARKS
ST LOUIS INTL  CLOUDY    87  67  51 W12       29.99R HX  90

$$
MOZ072>076-082>087-097>100-106>115-260000-
...SOUTH CENTRAL AND SOUTHEAST MISSOURI...

CITY           SKY/WX    TMP DP  RH WIND       PRES   REMARKS
CAPE GIRARDEAU CLEAR     86  69  56 NW3       29.97S HX  90
WEST PLAINS    SUNNY     85  65  51 SW5       30.04S

$$



USA.gov is the U.S. government's official web portal to all federal, state and local government web resources and services.